GFSMA_sfc_rhum_273.txt.gz
RH
75 71 68 64 64 62 63 65 64 63 64 63 64 65 63 61 58 49 44 74 87 84 76 72 74 81 87 89 91 90 89 88 87 86 86 87 88 87 87 87 88 88 88
78 76 72 70 68 68 66 66 64 64 62 64 66 65 64 62 59 59 48 48 81 86 85 80 76 78 79 84 89 92 90 90 89 88 87 87 88 89 88 88 88 88 87
77 74 70 68 68 72 76 72 71 68 68 63 67 64 62 62 58 59 55 51 50 77 86 85 83 81 80 81 83 88 92 94 92 91 90 89 89 89 90 90 89 89 88
72 69 64 68 69 66 66 66 70 73 70 67 68 65 63 61 61 61 56 55 50 48 60 83 84 83 83 82 81 82 85 90 94 93 92 91 90 90 90 91 91 90 90
70 70 65 70 66 61 67 65 66 70 68 74 69 64 62 61 60 53 57 57 58 55 50 62 81 84 84 83 81 80 80 81 84 90 94 93 92 91 91 91 91 91 91
59 57 54 63 58 55 64 65 80 70 81 68 58 61 64 59 56 56 57 54 54 57 56 56 54 52 80 83 83 82 79 79 79 80 83 88 93 93 92 92 92 92 92
57 58 52 56 55 58 63 65 62 68 62 61 58 53 55 58 63 67 52 52 56 56 59 56 55 51 50 76 82 80 77 78 79 80 80 82 85 91 93 94 93 92 92
58 54 60 56 59 53 62 63 68 58 58 62 78 74 62 47 56 48 52 54 60 54 52 55 57 55 53 53 59 77 80 77 77 77 79 82 84 86 88 91 93 94 93
57 60 61 61 61 57 59 61 68 68 62 58 74 76 74 71 59 42 48 54 50 51 44 44 45 50 54 49 55 61 78 84 80 78 77 79 81 83 85 88 89 94 94
57 58 62 63 65 59 64 60 59 68 68 68 57 60 71 82 76 68 45 42 45 43 46 41 42 42 46 47 64 75 84 85 85 81 78 76 76 78 82 84 87 88 91
57 59 63 66 67 63 67 69 70 71 68 77 71 62 65 58 64 68 61 50 49 40 40 43 48 50 47 48 47 55 88 82 83 84 84 83 83 79 78 80 84 85 87
52 61 60 64 65 65 68 67 72 74 71 70 63 62 65 68 65 87 86 78 65 50 52 46 46 44 44 45 49 78 77 76 82 86 83 82 82 84 83 82 81 82 83
55 63 62 65 62 67 69 68 69 69 66 66 66 60 59 61 71 74 83 82 86 67 53 49 46 47 42 48 52 68 65 68 78 84 81 81 83 86 84 85 85 84 84
57 62 63 62 64 67 67 68 63 61 64 66 68 66 62 59 60 67 80 90 89 70 63 60 48 46 49 49 55 70 56 73 80 83 82 83 87 86 89 88 84 83 81
51 63 63 64 64 64 64 61 59 64 64 65 67 68 65 61 63 64 73 78 91 95 85 66 59 56 54 52 56 58 56 60 70 77 80 84 83 87 89 87 88 88 83
62 62 63 64 64 64 63 62 60 62 66 64 61 72 74 69 68 66 75 76 80 88 94 66 65 62 59 58 54 61 59 69 68 73 79 83 84 89 85 83 83 87 89
64 62 64 64 64 64 62 62 63 64 68 71 71 73 75 72 74 73 75 72 77 79 88 70 62 61 64 69 60 60 57 58 53 66 75 88 83 86 85 82 87 92 94
67 65 63 64 64 60 63 66 67 68 73 73 75 73 73 65 73 70 74 78 80 77 85 90 74 65 72 65 64 64 52 45 51 55 70 70 82 78 77 84 91 91 92
64 64 61 63 64 64 65 63 64 67 66 66 69 73 72 74 76 74 76 77 80 77 82 85 82 68 65 62 66 62 60 58 45 58 62 69 70 72 80 87 84 87 90
61 59 60 62 64 63 63 64 63 69 66 63 69 68 67 74 75 75 74 81 79 83 82 85 85 83 80 73 75 79 78 68 66 54 58 65 73 78 81 78 78 80 89
62 59 61 62 62 60 59 70 67 66 65 66 67 62 66 69 71 78 78 82 83 87 87 89 89 88 87 86 89 86 93 90 86 81 74 66 63 66 70 75 74 82 94
63 63 62 65 66 53 78 76 75 63 63 63 65 64 62 67 74 79 82 81 82 90 92 93 91 95 94 95 93 96 96 96 96 82 78 86 77 82 74 78 77 92 97
66 66 64 64 66 64 80 78 82 60 61 64 65 64 61 55 75 75 76 77 75 78 80 84 94 95 96 95 96 96 96 96 96 92 93 96 87 89 77 77 90 97 98
66 66 65 64 64 60 76 79 81 61 60 62 64 65 68 69 72 80 78 75 73 71 69 71 85 90 95 95 97 97 97 96 96 92 87 98 89 92 88 89 91 97 98
60 63 64 64 64 64 76 78 70 60 58 61 59 64 69 71 79 81 77 78 77 74 73 79 79 81 81 83 86 96 96 97 96 97 88 98 98 100 100 99 97 99 99
56 54 56 62 71 63 76 76 71 60 62 64 65 63 78 76 77 78 76 78 87 86 91 83 75 72 74 76 80 87 97 98 97 98 86 99 98 98 100 100 100 100 100

GFSMA_sfc_rhum_276.txt.gz
RH
58 52 50 47 48 46 45 46 44 44 47 48 48 50 50 49 48 41 36 68 78 79 75 73 72 78 80 88 91 92 93 92 90 89 89 89 89 89 88 88 88 87 87
62 52 53 52 50 51 50 50 49 52 49 48 49 50 51 49 46 46 39 38 79 82 84 80 76 76 80 81 88 92 92 92 91 90 89 90 90 90 89 89 88 88 87
63 62 54 54 54 54 59 55 56 52 51 47 49 48 48 46 42 43 41 40 40 77 80 83 84 83 82 81 81 86 90 92 92 91 91 91 90 90 90 89 89 88 88
63 61 55 58 57 54 53 53 54 54 53 56 59 51 46 46 46 46 44 43 40 38 56 82 83 84 85 83 81 81 82 85 90 90 91 92 92 92 91 90 90 90 89
50 49 48 51 50 47 50 48 50 58 61 60 53 45 46 45 45 40 45 46 47 46 42 58 78 82 82 83 82 78 80 81 82 84 88 91 92 92 92 92 91 91 91
46 42 42 49 42 39 40 44 51 48 48 46 37 34 39 37 36 40 44 46 46 57 57 62 60 52 79 84 84 81 76 79 80 80 81 83 87 90 93 93 92 92 92
44 44 37 40 38 42 46 47 42 41 37 43 34 30 29 31 38 51 41 38 46 41 47 42 48 45 41 61 71 71 62 65 76 76 77 79 81 86 88 90 90 90 92
45 41 44 41 44 37 48 48 50 38 33 42 49 36 29 25 36 28 34 33 42 30 29 28 33 32 31 36 38 62 69 77 82 79 79 83 85 83 82 85 87 90 90
43 46 46 47 46 42 42 49 51 52 40 39 51 48 40 35 42 28 32 32 37 36 32 30 31 33 35 36 42 48 83 82 76 75 72 72 79 80 83 85 82 83 86
45 46 50 50 52 46 53 49 48 51 53 48 42 39 51 56 47 50 33 31 36 37 41 35 36 38 36 34 47 56 83 78 72 67 65 67 72 76 75 77 83 84 83
47 46 50 52 53 49 56 59 59 58 48 50 47 47 49 43 42 48 46 42 40 37 35 40 41 37 36 37 38 45 71 68 71 74 72 70 80 77 75 76 78 82 84
40 49 48 53 55 54 57 55 58 60 57 54 50 48 48 49 50 56 62 58 55 46 43 41 41 37 38 37 42 62 63 72 72 75 70 71 73 70 70 74 72 77 81
42 53 52 56 53 58 57 56 57 56 57 57 59 50 48 48 48 50 58 59 63 53 45 43 40 40 35 40 41 59 62 67 68 72 74 74 73 76 75 73 74 77 78
45 53 54 54 55 54 54 54 50 50 57 57 61 58 51 48 50 55 68 80 78 58 50 54 41 40 40 40 49 63 46 62 67 70 71 75 76 77 82 82 85 82 80
43 53 54 54 54 53 52 51 49 56 55 57 59 63 58 56 59 61 65 72 85 90 72 52 50 45 44 45 48 50 48 57 67 69 74 73 79 75 80 77 74 77 77
49 51 52 52 52 51 52 51 48 54 56 56 52 60 61 58 60 61 64 63 66 81 88 54 50 51 51 43 47 50 48 62 60 65 69 74 69 71 71 74 82 82 77
49 49 50 50 48 50 52 53 51 55 56 58 58 60 64 62 62 60 60 61 62 66 82 63 54 51 56 55 51 51 51 49 44 59 65 68 70 69 72 78 78 75 75
52 49 50 49 48 51 51 53 54 53 55 57 58 59 59 53 64 62 60 63 62 63 72 80 61 55 57 59 60 63 51 44 49 52 67 70 70 71 72 72 76 78 88
52 50 50 51 52 54 52 52 53 54 54 54 57 58 57 62 63 61 62 61 60 56 62 74 69 60 60 59 64 62 61 63 48 62 64 67 68 71 73 74 77 84 78
47 47 49 51 52 50 51 53 51 54 53 52 59 58 56 59 63 67 60 66 63 68 68 72 70 67 61 60 66 77 76 69 73 60 66 70 73 72 75 74 73 76 78
47 46 49 50 48 46 50 62 57 52 53 52 54 49 55 61 71 72 66 71 71 76 72 76 76 74 74 76 78 79 88 83 82 78 74 68 69 66 64 70 68 72 82
50 50 50 51 50 40 79 77 73 50 48 49 51 51 49 58 66 77 80 79 80 75 77 82 80 83 80 80 80 91 96 93 94 77 87 94 84 87 76 72 73 80 85
54 51 52 50 52 53 77 77 80 46 47 50 52 52 47 42 64 66 70 72 68 76 79 76 84 84 89 80 88 95 95 96 95 88 92 96 88 87 79 71 82 87 90
51 50 50 51 51 51 78 78 82 47 48 48 52 53 57 57 62 74 66 60 60 59 60 64 77 78 76 75 81 92 97 96 90 82 81 97 90 91 88 87 84 91 94
48 48 46 50 52 56 76 79 70 46 45 48 47 52 58 58 76 78 65 63 60 59 64 76 76 77 77 76 77 85 96 96 94 93 87 99 98 100 100 98 96 86 94
41 37 42 52 70 54 80 74 70 46 51 50 51 51 73 73 79 78 67 63 70 76 87 76 70 67 67 69 74 78 85 97 97 96 89 98 98 99 100 91 94 94 96

GFSMA_sfc_rhum_279.txt.gz
RH
58 43 40 36 37 36 37 39 37 36 39 39 40 41 42 42 41 36 34 70 72 75 75 71 73 78 81 83 87 89 92 93 93 92 91 91 90 90 90 89 89 89 88
59 46 45 44 45 45 48 46 46 47 42 42 42 42 42 40 40 41 33 35 77 77 79 79 79 79 80 82 85 89 91 92 93 93 93 92 92 92 91 91 90 90 89
59 62 50 51 51 51 53 50 51 50 58 54 61 59 61 59 55 54 52 43 39 77 82 82 84 84 84 84 85 86 86 89 93 92 92 92 92 93 92 92 92 91 90
56 55 50 53 52 50 48 49 49 52 56 59 62 51 47 47 46 54 57 63 78 81 85 94 88 86 85 83 82 83 84 86 87 88 90 92 93 93 93 92 92 92 91
47 47 47 48 45 41 43 43 45 47 46 46 38 34 34 34 36 31 38 52 53 65 55 68 77 81 80 79 67 69 66 67 75 84 86 87 87 87 90 93 94 94 93
48 41 40 45 38 36 36 39 44 37 36 36 30 25 29 25 26 37 40 32 43 43 38 39 34 33 59 62 57 61 49 75 72 74 77 77 76 84 86 87 87 91 93
41 44 35 36 34 39 43 45 40 37 30 39 34 30 25 29 36 31 26 28 34 30 36 29 28 28 27 50 51 55 59 71 70 71 73 72 72 74 82 82 84 87 87
42 39 43 39 41 35 47 49 49 41 31 39 43 34 28 25 33 30 33 32 41 32 29 32 35 36 35 33 42 69 72 68 68 68 67 66 67 70 72 78 81 81 82
41 44 45 46 44 43 44 50 53 52 42 39 45 43 40 38 42 32 35 31 44 36 36 34 37 36 39 37 42 47 73 70 65 66 66 67 69 67 68 76 75 75 81
42 44 48 48 50 47 53 49 49 50 51 46 41 38 47 47 47 45 34 34 39 38 46 41 40 40 39 38 49 61 74 71 68 64 65 64 66 68 68 69 71 71 73
44 43 48 51 52 48 54 57 57 57 47 49 46 45 46 40 42 47 50 43 37 36 38 41 43 40 40 40 41 48 67 69 68 67 65 65 66 66 68 68 67 68 69
41 47 46 53 54 52 54 53 55 58 57 54 51 47 46 48 48 48 50 50 50 44 40 40 42 41 40 40 42 60 64 65 68 72 65 65 62 65 67 71 71 73 74
42 52 50 54 50 53 52 52 55 55 57 57 59 51 46 46 48 50 53 55 59 50 44 40 41 41 36 42 43 59 59 64 73 66 72 67 67 66 64 67 71 69 72
45 52 52 51 51 50 50 51 50 50 56 56 62 59 49 48 50 52 56 64 72 58 47 52 39 43 42 42 49 62 48 62 67 73 68 70 72 72 70 68 64 62 64
43 50 50 50 48 48 48 46 48 54 53 55 57 58 51 49 51 51 55 57 66 76 66 47 50 46 46 46 49 52 54 60 68 67 71 70 74 72 72 73 71 70 66
46 48 47 46 45 47 48 47 46 51 53 52 49 56 55 52 51 51 54 52 52 61 70 51 49 50 50 43 46 54 54 63 62 64 70 70 70 74 73 74 75 75 74
44 44 44 42 43 45 47 49 45 48 50 52 54 53 55 54 53 51 51 49 51 51 60 54 50 50 58 57 52 54 52 53 49 61 65 71 72 73 74 74 76 76 77
45 44 42 42 43 45 47 48 49 48 49 52 53 52 52 45 54 53 52 54 53 54 58 66 57 54 57 57 58 61 50 43 51 54 67 70 72 72 75 76 78 78 78
46 45 45 45 45 48 47 46 47 47 47 50 53 52 51 53 57 57 57 56 54 49 57 64 62 56 55 55 58 59 58 60 46 59 61 66 69 74 76 76 79 79 79
43 43 44 44 45 45 46 47 45 48 47 46 53 51 51 52 60 61 56 59 56 61 64 62 62 61 60 58 60 70 72 64 64 52 59 66 74 74 72 78 81 80 79
41 41 44 44 41 40 47 61 55 45 46 46 48 44 49 57 72 76 58 63 64 66 65 66 68 67 66 69 76 77 82 78 75 68 73 73 67 68 67 74 73 78 79
44 44 43 44 43 36 78 78 74 54 43 44 47 47 44 55 61 71 75 74 76 66 67 68 78 77 74 78 79 87 94 94 93 70 81 87 74 79 74 71 73 80 87
49 48 47 46 48 51 78 78 82 52 43 47 49 49 43 38 66 62 64 68 60 71 75 66 73 78 87 80 84 92 88 93 96 79 79 94 80 84 73 63 80 84 92
48 48 48 47 47 55 79 79 81 51 44 44 47 49 52 51 67 73 64 54 49 48 53 57 67 70 70 70 79 79 85 87 82 76 73 97 89 89 84 80 80 89 90
47 46 44 46 48 61 76 77 74 40 41 44 42 48 52 54 77 78 64 59 55 54 59 72 71 73 74 72 71 78 88 96 94 89 82 98 93 96 92 92 86 79 86
42 36 41 48 64 59 81 76 72 40 46 45 47 48 84 70 80 80 66 60 65 71 82 71 65 62 63 64 70 75 81 95 97 96 88 98 96 98 97 89 88 85 88

GFSMA_sfc_rhum_282.txt.gz
RH
76 72 63 64 61 65 63 62 60 60 58 58 55 56 56 59 59 58 57 68 75 75 75 75 77 80 83 85 88 89 89 91 92 93 94 95 94 94 92 92 91 91 90
79 72 68 65 67 69 71 69 69 72 72 66 65 67 64 60 55 55 56 61 86 89 90 86 84 82 80 81 85 88 88 88 90 92 93 95 96 96 95 94 93 92 91
76 76 71 71 70 70 69 70 67 64 69 68 73 68 68 62 66 65 68 65 96 96 96 94 93 86 77 71 68 73 78 77 87 88 88 88 89 90 94 95 95 95 94
68 70 66 68 68 68 60 62 67 67 67 70 66 60 54 54 52 58 58 84 85 90 91 67 64 81 72 61 61 62 62 82 75 77 79 80 80 79 83 86 88 89 93
57 65 62 65 63 57 59 59 62 64 59 59 44 45 49 54 45 39 39 42 44 42 36 51 62 60 63 59 59 48 62 72 69 69 69 70 70 72 74 78 82 84 85
57 63 60 64 57 54 57 62 67 62 61 60 46 41 48 49 50 49 46 35 39 38 39 41 42 44 58 58 61 65 69 64 64 65 66 68 69 70 70 71 74 80 83
59 63 60 59 63 62 68 64 67 65 63 60 61 58 56 51 45 46 42 46 42 38 41 42 46 43 42 63 58 66 64 61 61 62 62 64 67 67 67 68 67 73 80
62 55 67 64 66 66 71 73 75 68 64 64 65 66 62 59 50 50 46 45 53 44 41 43 42 44 50 47 52 65 63 61 61 60 60 61 65 66 67 68 68 67 68
60 66 67 70 71 70 72 74 75 74 72 68 65 71 74 73 64 58 56 59 50 52 52 45 44 46 47 46 53 58 70 70 63 61 60 62 65 64 65 64 66 68 68
61 62 68 70 73 72 73 69 66 74 72 69 69 56 69 72 75 72 56 58 50 47 52 52 54 48 44 48 58 57 74 69 66 60 60 63 61 63 64 62 64 65 67
63 61 69 73 74 74 76 77 76 76 71 74 71 69 69 67 62 73 74 61 54 53 51 56 53 50 49 47 50 55 64 64 71 64 63 62 66 66 63 62 63 63 64
64 67 65 74 74 72 74 75 76 77 76 74 70 68 68 70 70 74 75 69 69 61 56 52 52 54 51 50 47 62 62 70 67 70 68 67 63 64 64 64 64 65 64
66 72 72 74 72 73 72 71 75 76 77 75 74 72 66 66 66 68 73 75 77 66 67 61 56 50 45 50 52 62 61 70 65 72 68 69 67 66 67 66 66 67 68
68 72 72 70 69 69 70 72 74 72 76 78 78 75 68 66 68 70 74 77 77 73 63 60 56 59 52 51 56 63 54 64 71 68 68 69 71 69 71 70 70 69 69
60 70 69 68 68 67 66 70 72 75 74 75 77 76 70 71 72 71 73 72 76 82 74 64 61 51 54 54 56 54 54 63 67 66 70 68 68 72 71 72 72 72 74
65 67 66 65 65 66 66 67 69 70 72 74 70 73 71 71 71 72 74 71 71 72 78 62 60 58 55 50 53 56 56 63 63 66 67 68 69 69 72 74 76 77 78
63 59 58 59 59 62 64 66 68 65 68 72 71 70 70 68 73 68 71 69 67 68 75 68 62 59 60 60 57 59 58 56 57 65 67 67 68 70 73 74 77 76 79
62 58 56 56 56 59 63 65 64 63 68 71 71 70 70 55 73 71 71 69 70 67 73 78 68 65 64 61 62 63 58 52 59 59 67 67 70 70 73 73 70 71 79
63 58 59 59 57 62 61 62 62 62 64 68 69 68 70 69 75 75 72 70 70 64 71 75 73 66 65 63 66 65 63 66 56 63 63 65 68 70 73 71 67 73 76
59 59 58 56 58 58 59 62 57 64 62 63 68 66 68 70 74 79 65 72 67 75 72 71 71 69 67 64 68 72 74 67 69 56 61 65 69 72 73 72 73 70 75
58 56 58 56 54 54 59 74 74 66 61 63 65 57 70 72 79 77 70 76 76 77 70 72 74 73 75 77 78 73 78 78 75 70 73 69 72 70 68 66 68 72 78
61 62 60 56 56 48 81 81 80 74 62 60 62 65 62 74 77 75 76 77 82 76 77 81 80 83 79 77 76 81 87 90 90 69 78 83 71 77 71 62 69 76 80
69 67 66 62 65 68 81 80 83 68 66 63 65 68 53 50 78 77 75 74 69 70 79 76 85 86 85 78 78 85 87 88 91 80 79 88 82 83 76 60 75 78 82
69 69 67 65 69 66 79 81 84 74 62 60 61 69 68 69 76 82 78 69 64 62 64 66 80 78 75 73 77 76 83 86 85 77 74 98 89 88 85 77 77 79 78
65 66 62 65 74 75 78 80 76 62 54 58 60 71 70 68 76 78 78 74 67 66 63 73 75 75 78 77 75 80 85 94 91 87 80 96 92 97 93 88 81 76 77
57 50 55 67 79 75 79 76 76 58 62 62 67 74 79 74 78 82 83 79 75 74 82 82 72 70 69 69 72 77 81 95 95 92 82 95 97 96 97 95 84 82 84